Time,TemperatureF,DewpointF,PressureIn,WindDirection,WindDirectionDegrees,WindSpeedMPH,WindSpeedGustMPH,Humidity,HourlyPrecipIn,Conditions,Clouds,dailyrainin,SoftwareType,DateUTC
2013-02-20 00:00:00,28.8,13.8,29.41,NNW,342,0.0,0.0,53,0.00,,---,0.00,VWS V13.00,2013-02-20 06:00:00,
2013-02-20 00:06:00,28.6,14.1,29.41,NNW,342,0.0,0.0,54,0.00,,---,0.00,VWS V13.00,2013-02-20 06:06:00,
2013-02-20 00:12:00,28.4,14.3,29.41,NNW,342,0.0,0.0,55,0.00,,---,0.00,VWS V13.00,2013-02-20 06:12:00,
2013-02-20 00:17:00,28.2,14.1,29.41,NNW,342,0.0,0.0,55,0.00,,---,0.00,VWS V13.00,2013-02-20 06:17:00,
2013-02-20 00:24:00,27.7,14.4,29.41,NNW,342,0.0,0.0,57,0.00,,---,0.00,VWS V13.00,2013-02-20 06:24:00,
2013-02-20 00:30:00,27.1,13.9,29.41,NNW,342,0.0,0.0,57,0.00,,---,0.00,VWS V13.00,2013-02-20 06:30:00,
2013-02-20 00:36:00,27.0,14.2,29.41,NNW,342,0.0,0.0,58,0.00,,---,0.00,VWS V13.00,2013-02-20 06:36:00,
2013-02-20 00:42:00,26.8,14.4,29.41,NNW,342,0.0,0.0,59,0.00,,---,0.00,VWS V13.00,2013-02-20 06:42:00,
2013-02-20 00:48:00,26.4,14.4,29.41,NNW,342,0.0,0.0,60,0.00,,---,0.00,VWS V13.00,2013-02-20 06:48:00,
2013-02-20 00:54:00,26.8,15.9,29.41,NNW,342,0.0,0.0,63,0.00,,---,0.00,VWS V13.00,2013-02-20 06:54:00,
2013-02-20 01:00:00,26.8,15.9,29.41,NNW,342,0.0,0.0,63,0.00,,---,0.00,VWS V13.00,2013-02-20 07:00:00,
2013-02-20 01:06:00,26.8,15.9,29.41,NNW,342,0.0,0.0,63,0.00,,---,0.00,VWS V13.00,2013-02-20 07:06:00,
2013-02-20 01:12:00,26.4,15.6,29.41,NNW,342,0.0,0.0,63,0.00,,---,0.00,VWS V13.00,2013-02-20 07:12:00,
2013-02-20 01:17:00,26.2,15.7,29.41,NNW,342,0.0,0.0,64,0.00,,---,0.00,VWS V13.00,2013-02-20 07:17:00,
2013-02-20 01:25:00,26.6,16.4,29.41,NNW,342,0.0,0.0,65,0.00,,---,0.00,VWS V13.00,2013-02-20 07:25:00,
2013-02-20 01:31:00,26.6,16.4,29.41,NNW,342,0.0,0.0,65,0.00,,---,0.00,VWS V13.00,2013-02-20 07:31:00,
2013-02-20 01:37:00,26.8,16.6,29.41,NNW,342,0.0,0.0,65,0.00,,---,0.00,VWS V13.00,2013-02-20 07:37:00,
2013-02-20 01:42:00,26.8,17.0,29.41,NNW,342,0.0,0.0,66,0.00,,---,0.00,VWS V13.00,2013-02-20 07:42:00,
2013-02-20 01:49:00,27.0,17.5,29.41,NNW,342,0.0,0.0,67,0.00,,---,0.00,VWS V13.00,2013-02-20 07:49:00,
2013-02-20 01:55:00,27.1,18.0,29.38,NNW,342,0.0,0.0,68,0.00,,---,0.00,VWS V13.00,2013-02-20 07:55:00,
2013-02-20 02:01:00,27.1,18.0,29.38,NNW,342,0.0,0.0,68,0.00,,---,0.00,VWS V13.00,2013-02-20 08:01:00,
2013-02-20 02:07:00,27.0,17.8,29.38,NNW,342,0.0,0.0,68,0.00,,---,0.00,VWS V13.00,2013-02-20 08:07:00,
2013-02-20 02:12:00,26.6,17.5,29.38,NNW,342,0.0,0.0,68,0.00,,---,0.00,VWS V13.00,2013-02-20 08:12:00,
2013-02-20 02:17:00,26.2,17.1,29.38,NNW,342,0.0,0.0,68,0.00,,---,0.00,VWS V13.00,2013-02-20 08:17:00,
2013-02-20 02:25:00,25.9,17.1,29.38,NNW,342,0.0,0.0,69,0.00,,---,0.00,VWS V13.00,2013-02-20 08:25:00,
2013-02-20 02:31:00,25.7,17.3,29.38,NNW,342,0.0,0.0,70,0.00,,---,0.00,VWS V13.00,2013-02-20 08:31:00,
2013-02-20 02:37:00,25.7,17.6,29.38,NNW,342,0.0,0.0,71,0.00,,---,0.00,VWS V13.00,2013-02-20 08:37:00,
2013-02-20 02:42:00,26.1,18.3,29.38,NNW,342,0.0,0.0,72,0.00,,---,0.00,VWS V13.00,2013-02-20 08:42:00,
2013-02-20 02:49:00,27.9,20.3,29.38,NNW,342,0.0,0.0,73,0.00,,---,0.00,VWS V13.00,2013-02-20 08:49:00,
2013-02-20 02:55:00,29.3,20.4,29.38,NNW,342,0.0,0.0,69,0.00,,---,0.00,VWS V13.00,2013-02-20 08:55:00,
2013-02-20 03:01:00,30.2,19.1,29.38,NNW,331,0.0,0.0,63,0.00,,---,0.00,VWS V13.00,2013-02-20 09:01:00,
2013-02-20 03:07:00,30.9,18.3,29.38,NNW,331,0.0,0.0,59,0.00,,---,0.00,VWS V13.00,2013-02-20 09:07:00,
2013-02-20 03:12:00,31.3,17.8,29.38,NNW,331,0.0,0.0,57,0.00,,---,0.00,VWS V13.00,2013-02-20 09:12:00,
2013-02-20 03:19:00,31.3,17.0,29.38,NNW,331,0.0,0.0,55,0.00,,---,0.00,VWS V13.00,2013-02-20 09:19:00,
2013-02-20 03:25:00,31.5,16.8,29.38,NNW,331,0.0,0.0,54,0.00,,---,0.00,VWS V13.00,2013-02-20 09:25:00,
2013-02-20 03:31:00,31.3,16.6,29.38,NNW,331,0.0,0.0,54,0.00,,---,0.00,VWS V13.00,2013-02-20 09:31:00,
2013-02-20 03:37:00,31.3,16.1,29.38,NNW,331,0.0,0.0,53,0.00,,---,0.00,VWS V13.00,2013-02-20 09:37:00,
2013-02-20 03:43:00,31.6,16.5,29.38,NW,314,0.0,0.0,53,0.00,,---,0.00,VWS V13.00,2013-02-20 09:43:00,
2013-02-20 03:49:00,31.8,16.2,29.38,North,357,0.0,0.0,52,0.00,,---,0.00,VWS V13.00,2013-02-20 09:49:00,
2013-02-20 03:55:00,31.6,16.0,29.41,North,357,0.0,0.0,52,0.00,,---,0.00,VWS V13.00,2013-02-20 09:55:00,
2013-02-20 04:01:00,31.5,15.9,29.41,North,357,0.0,0.0,52,0.00,,---,0.00,VWS V13.00,2013-02-20 10:01:00,
2013-02-20 04:07:00,31.3,15.7,29.41,North,357,0.0,0.0,52,0.00,,---,0.00,VWS V13.00,2013-02-20 10:07:00,
2013-02-20 04:12:00,31.1,15.5,29.41,North,357,0.0,0.0,52,0.00,,---,0.00,VWS V13.00,2013-02-20 10:12:00,
2013-02-20 04:19:00,31.3,15.3,29.41,NE,38,0.0,0.0,51,0.00,,---,0.00,VWS V13.00,2013-02-20 10:19:00,
2013-02-20 04:25:00,31.5,15.4,29.41,West,280,2.2,2.2,51,0.00,,---,0.00,VWS V13.00,2013-02-20 10:25:00,
2013-02-20 04:31:00,31.3,15.3,29.41,WSW,238,0.0,0.0,51,0.00,,---,0.00,VWS V13.00,2013-02-20 10:31:00,
2013-02-20 04:37:00,31.1,15.1,29.41,WSW,238,0.0,0.0,51,0.00,,---,0.00,VWS V13.00,2013-02-20 10:37:00,
2013-02-20 04:42:00,31.1,15.1,29.41,SW,224,0.0,0.0,51,0.00,,---,0.00,VWS V13.00,2013-02-20 10:42:00,
2013-02-20 04:47:00,30.9,14.9,29.41,SW,224,0.0,0.0,51,0.00,,---,0.00,VWS V13.00,2013-02-20 10:47:00,
2013-02-20 04:53:00,30.9,14.5,29.41,WNW,292,0.0,0.0,50,0.00,,---,0.00,VWS V13.00,2013-02-20 10:53:00,
2013-02-20 04:59:00,30.9,14.5,29.41,SSW,208,0.0,0.0,50,0.00,,---,0.00,VWS V13.00,2013-02-20 10:59:00,
2013-02-20 05:05:00,30.7,13.9,29.41,North,357,0.0,0.0,49,0.00,,---,0.00,VWS V13.00,2013-02-20 11:05:00,
2013-02-20 05:11:00,30.7,13.9,29.41,NW,313,0.0,4.0,49,0.00,,---,0.00,VWS V13.00,2013-02-20 11:11:00,
2013-02-20 05:17:00,30.6,13.7,29.41,West,261,0.0,0.0,49,0.00,,---,0.00,VWS V13.00,2013-02-20 11:17:00,
2013-02-20 05:22:00,30.4,13.5,29.41,NE,35,0.0,2.7,49,0.00,,---,0.00,VWS V13.00,2013-02-20 11:22:00,
2013-02-20 05:29:00,30.2,13.4,29.41,NNE,33,0.0,0.0,49,0.00,,---,0.00,VWS V13.00,2013-02-20 11:29:00,
2013-02-20 05:35:00,30.0,13.6,29.41,ENE,69,0.0,2.2,50,0.00,,---,0.00,VWS V13.00,2013-02-20 11:35:00,
2013-02-20 05:41:00,29.5,13.6,29.41,ENE,76,0.0,3.1,51,0.00,,---,0.00,VWS V13.00,2013-02-20 11:41:00,
2013-02-20 05:47:00,29.5,13.6,29.41,NNE,22,0.0,2.2,51,0.00,,---,0.00,VWS V13.00,2013-02-20 11:47:00,
2013-02-20 05:52:00,29.3,13.4,29.41,East,79,0.0,4.5,51,0.00,,---,0.00,VWS V13.00,2013-02-20 11:52:00,
2013-02-20 05:57:00,29.3,13.4,29.41,NE,34,0.0,3.1,51,0.00,,---,0.00,VWS V13.00,2013-02-20 11:57:00,
2013-02-20 06:02:00,29.1,13.3,29.41,NE,55,0.0,4.0,51,0.00,,---,0.00,VWS V13.00,2013-02-20 12:02:00,
2013-02-20 06:07:00,28.8,13.4,29.41,NE,38,0.0,3.1,52,0.00,,---,0.00,VWS V13.00,2013-02-20 12:07:00,
2013-02-20 06:12:00,28.6,13.2,29.41,NNE,29,0.0,4.5,52,0.00,,---,0.00,VWS V13.00,2013-02-20 12:12:00,
2013-02-20 06:20:00,28.4,13.0,29.41,NE,50,0.0,0.0,52,0.00,,---,0.00,VWS V13.00,2013-02-20 12:20:00,
2013-02-20 06:26:00,28.4,13.0,29.44,NNE,19,0.0,0.0,52,0.00,,---,0.00,VWS V13.00,2013-02-20 12:26:00,
2013-02-20 06:32:00,28.2,12.9,29.44,NNE,23,0.0,0.0,52,0.00,,---,0.00,VWS V13.00,2013-02-20 12:32:00,
2013-02-20 06:37:00,28.0,12.7,29.44,NNE,15,0.0,0.0,52,0.00,,---,0.00,VWS V13.00,2013-02-20 12:37:00,
2013-02-20 06:42:00,28.0,13.1,29.44,NE,46,0.0,0.0,53,0.00,,---,0.00,VWS V13.00,2013-02-20 12:42:00,
2013-02-20 06:50:00,28.0,13.1,29.44,NE,46,0.0,0.0,53,0.00,,---,0.00,VWS V13.00,2013-02-20 12:50:00,
2013-02-20 06:56:00,28.0,13.1,29.44,NE,46,0.0,0.0,53,0.00,,---,0.00,VWS V13.00,2013-02-20 12:56:00,
2013-02-20 07:02:00,28.2,13.3,29.44,NE,47,0.0,0.0,53,0.00,,---,0.00,VWS V13.00,2013-02-20 13:02:00,
2013-02-20 07:07:00,28.0,13.1,29.44,ENE,74,0.0,3.6,53,0.00,,---,0.00,VWS V13.00,2013-02-20 13:07:00,
2013-02-20 07:14:00,28.2,13.3,29.44,NE,37,0.0,0.0,53,0.00,,---,0.00,VWS V13.00,2013-02-20 13:14:00,
2013-02-20 07:20:00,28.2,13.3,29.44,East,87,0.0,2.7,53,0.00,,---,0.00,VWS V13.00,2013-02-20 13:20:00,
2013-02-20 07:26:00,28.2,13.3,29.44,NNE,20,2.2,4.0,53,0.00,,---,0.00,VWS V13.00,2013-02-20 13:26:00,
2013-02-20 07:32:00,28.4,13.5,29.44,WNW,288,0.0,0.0,53,0.00,,---,0.00,VWS V13.00,2013-02-20 13:32:00,
2013-02-20 07:38:00,28.6,13.2,29.44,NE,48,0.0,0.0,52,0.00,,---,0.00,VWS V13.00,2013-02-20 13:38:00,
2013-02-20 07:44:00,28.9,13.5,29.47,ENE,73,0.0,0.0,52,0.00,,---,0.00,VWS V13.00,2013-02-20 13:44:00,
2013-02-20 07:50:00,29.5,14.0,29.47,NE,42,2.2,4.0,52,0.00,,---,0.00,VWS V13.00,2013-02-20 13:50:00,
2013-02-20 07:56:00,30.0,14.1,29.47,ENE,67,3.6,5.8,51,0.00,,---,0.00,VWS V13.00,2013-02-20 13:56:00,
2013-02-20 08:02:00,30.2,14.3,29.47,ENE,69,3.6,3.6,51,0.00,,---,0.00,VWS V13.00,2013-02-20 14:02:00,
2013-02-20 08:07:00,30.6,14.1,29.47,NNE,16,0.0,4.0,50,0.00,,---,0.00,VWS V13.00,2013-02-20 14:07:00,
2013-02-20 08:14:00,30.9,14.0,29.47,ENE,62,3.6,3.6,49,0.00,,---,0.00,VWS V13.00,2013-02-20 14:14:00,
2013-02-20 08:20:00,31.1,13.7,29.47,ENE,59,4.0,4.0,48,0.00,,---,0.00,VWS V13.00,2013-02-20 14:20:00,
2013-02-20 08:26:00,31.1,13.7,29.47,NNE,20,2.2,2.7,48,0.00,,---,0.00,VWS V13.00,2013-02-20 14:26:00,
2013-02-20 08:32:00,31.3,13.4,29.47,NNE,19,0.0,4.9,47,0.00,,---,0.00,VWS V13.00,2013-02-20 14:32:00,
2013-02-20 08:38:00,31.3,12.9,29.47,East,83,3.1,3.6,46,0.00,,---,0.00,VWS V13.00,2013-02-20 14:38:00,
2013-02-20 08:44:00,31.5,13.1,29.47,NNE,27,2.7,4.0,46,0.00,,---,0.00,VWS V13.00,2013-02-20 14:44:00,
2013-02-20 08:50:00,31.8,13.4,29.47,NE,55,3.1,4.0,46,0.00,,---,0.00,VWS V13.00,2013-02-20 14:50:00,
2013-02-20 08:56:00,32.0,13.1,29.47,WSW,243,0.0,3.6,45,0.00,,---,0.00,VWS V13.00,2013-02-20 14:56:00,
2013-02-20 09:02:00,32.2,13.2,29.47,North,0,2.7,5.4,45,0.00,,---,0.00,VWS V13.00,2013-02-20 15:02:00,
2013-02-20 09:07:00,32.4,13.9,29.47,NE,53,0.0,3.6,46,0.00,,---,0.00,VWS V13.00,2013-02-20 15:07:00,
2013-02-20 09:12:00,32.4,13.9,29.47,NE,37,3.1,4.0,46,0.00,,---,0.00,VWS V13.00,2013-02-20 15:12:00,
2013-02-20 09:17:00,32.2,13.7,29.47,NNE,13,0.0,4.0,46,0.00,,---,0.00,VWS V13.00,2013-02-20 15:17:00,
2013-02-20 09:23:00,32.5,14.1,29.47,West,273,0.0,3.6,46,0.00,,---,0.00,VWS V13.00,2013-02-20 15:23:00,
2013-02-20 09:29:00,32.7,13.7,29.47,NE,51,2.7,3.6,45,0.00,,---,0.00,VWS V13.00,2013-02-20 15:29:00,
2013-02-20 09:35:00,32.7,13.7,29.47,ENE,75,2.7,5.4,45,0.00,,---,0.00,VWS V13.00,2013-02-20 15:35:00,
2013-02-20 09:42:00,32.7,13.7,29.47,ENE,75,3.6,5.8,45,0.00,,---,0.00,VWS V13.00,2013-02-20 15:42:00,
2013-02-20 09:47:00,32.9,13.9,29.47,ENE,63,0.0,4.0,45,0.00,,---,0.00,VWS V13.00,2013-02-20 15:47:00,
2013-02-20 09:52:00,33.3,13.7,29.47,NE,48,4.0,5.4,44,0.00,,---,0.00,VWS V13.00,2013-02-20 15:52:00,
2013-02-20 10:00:00,33.8,14.2,29.47,NNE,23,3.6,4.9,44,0.00,,---,0.00,VWS V13.00,2013-02-20 16:00:00,
2013-02-20 10:06:00,34.3,14.2,29.47,East,97,4.9,8.1,43,0.00,,---,0.00,VWS V13.00,2013-02-20 16:06:00,
2013-02-20 10:12:00,34.9,14.7,29.47,ESE,111,3.1,5.8,43,0.00,,---,0.00,VWS V13.00,2013-02-20 16:12:00,
2013-02-20 10:17:00,35.1,14.8,29.47,NNE,31,2.7,6.3,43,0.00,,---,0.00,VWS V13.00,2013-02-20 16:17:00,
2013-02-20 10:24:00,35.4,15.2,29.47,East,82,2.7,3.1,43,0.00,,---,0.00,VWS V13.00,2013-02-20 16:24:00,
2013-02-20 10:30:00,35.4,15.2,29.47,ESE,106,4.0,5.4,43,0.00,,---,0.00,VWS V13.00,2013-02-20 16:30:00,
2013-02-20 10:36:00,35.2,14.5,29.47,ENE,74,2.2,5.4,42,0.00,,---,0.00,VWS V13.00,2013-02-20 16:36:00,
2013-02-20 10:42:00,34.9,14.1,29.47,East,97,3.6,6.3,42,0.00,,---,0.00,VWS V13.00,2013-02-20 16:42:00,
2013-02-20 10:47:00,34.5,13.8,29.47,SW,234,0.0,5.4,42,0.00,,---,0.00,VWS V13.00,2013-02-20 16:47:00,
2013-02-20 10:52:00,34.5,13.3,29.47,NNE,18,0.0,4.9,41,0.00,,---,0.00,VWS V13.00,2013-02-20 16:52:00,
2013-02-20 11:00:00,34.3,13.6,29.47,North,4,0.0,3.6,42,0.00,,---,0.00,VWS V13.00,2013-02-20 17:00:00,
2013-02-20 11:06:00,34.5,13.8,29.47,NE,47,2.7,6.3,42,0.00,,---,0.00,VWS V13.00,2013-02-20 17:06:00,
2013-02-20 11:12:00,34.9,14.1,29.47,North,10,0.0,3.6,42,0.00,,---,0.00,VWS V13.00,2013-02-20 17:12:00,
2013-02-20 11:17:00,35.4,14.6,29.47,WNW,287,0.0,3.1,42,0.00,,---,0.00,VWS V13.00,2013-02-20 17:17:00,
2013-02-20 11:24:00,36.1,14.7,29.47,NNE,33,6.3,6.3,41,0.00,,---,0.00,VWS V13.00,2013-02-20 17:24:00,
2013-02-20 11:30:00,36.1,14.7,29.47,NE,40,2.2,4.0,41,0.00,,---,0.00,VWS V13.00,2013-02-20 17:30:00,
2013-02-20 11:36:00,35.6,13.7,29.47,NE,43,2.7,3.6,40,0.00,,---,0.00,VWS V13.00,2013-02-20 17:36:00,
2013-02-20 11:42:00,35.6,13.7,29.47,NNE,27,0.0,4.0,40,0.00,,---,0.00,VWS V13.00,2013-02-20 17:42:00,
2013-02-20 11:47:00,36.1,14.7,29.47,ESE,117,2.7,3.6,41,0.00,,---,0.00,VWS V13.00,2013-02-20 17:47:00,
2013-02-20 11:52:00,36.0,14.0,29.47,NW,307,0.0,3.6,40,0.00,,---,0.00,VWS V13.00,2013-02-20 17:52:00,
2013-02-20 12:00:00,36.1,14.2,29.44,NE,47,0.0,3.1,40,0.00,,---,0.00,VWS V13.00,2013-02-20 18:00:00,
2013-02-20 12:06:00,36.1,14.2,29.44,East,84,0.0,3.6,40,0.00,,---,0.00,VWS V13.00,2013-02-20 18:06:00,
2013-02-20 12:12:00,36.3,14.3,29.44,ENE,69,0.0,3.1,40,0.00,,---,0.00,VWS V13.00,2013-02-20 18:12:00,
2013-02-20 12:17:00,36.3,14.3,29.44,ENE,73,0.0,4.0,40,0.00,,---,0.00,VWS V13.00,2013-02-20 18:17:00,
2013-02-20 12:22:00,36.3,14.3,29.44,WNW,295,0.0,4.0,40,0.00,,---,0.00,VWS V13.00,2013-02-20 18:22:00,
2013-02-20 12:27:00,36.3,14.3,29.44,WNW,285,3.1,3.1,40,0.00,,---,0.00,VWS V13.00,2013-02-20 18:27:00,
2013-02-20 12:33:00,36.5,14.5,29.44,West,266,0.0,3.1,40,0.00,,---,0.00,VWS V13.00,2013-02-20 18:33:00,
2013-02-20 12:39:00,36.7,14.6,29.44,WNW,282,2.2,2.7,40,0.00,,---,0.00,VWS V13.00,2013-02-20 18:39:00,
2013-02-20 12:45:00,36.5,14.5,29.44,ENE,59,0.0,3.6,40,0.00,,---,0.00,VWS V13.00,2013-02-20 18:45:00,
2013-02-20 12:51:00,36.5,14.5,29.44,ENE,76,0.0,3.1,40,0.00,,---,0.00,VWS V13.00,2013-02-20 18:51:00,
2013-02-20 12:57:00,36.7,14.6,29.44,West,269,0.0,4.0,40,0.00,,---,0.00,VWS V13.00,2013-02-20 18:57:00,
2013-02-20 13:02:00,36.7,14.6,29.44,SSE,149,0.0,2.7,40,0.00,,---,0.00,VWS V13.00,2013-02-20 19:02:00,
2013-02-20 13:07:00,36.9,14.2,29.44,WSW,251,2.7,3.1,39,0.00,,---,0.00,VWS V13.00,2013-02-20 19:07:00,
2013-02-20 13:12:00,37.0,14.4,29.44,ENE,67,2.7,3.6,39,0.00,,---,0.00,VWS V13.00,2013-02-20 19:12:00,
2013-02-20 13:18:00,36.7,14.1,29.44,NNE,22,0.0,0.0,39,0.00,,---,0.00,VWS V13.00,2013-02-20 19:18:00,
2013-02-20 13:24:00,36.9,14.2,29.44,ENE,58,0.0,2.2,39,0.00,,---,0.00,VWS V13.00,2013-02-20 19:24:00,
2013-02-20 13:30:00,37.0,14.4,29.44,NNE,25,2.2,2.7,39,0.00,,---,0.00,VWS V13.00,2013-02-20 19:30:00,
2013-02-20 13:36:00,37.0,14.4,29.44,NE,49,3.6,3.6,39,0.00,,---,0.00,VWS V13.00,2013-02-20 19:36:00,
2013-02-20 13:42:00,37.0,14.4,29.44,NNE,28,0.0,3.1,39,0.00,,---,0.00,VWS V13.00,2013-02-20 19:42:00,
2013-02-20 13:47:00,37.2,14.6,29.44,West,276,0.0,3.6,39,0.00,,---,0.00,VWS V13.00,2013-02-20 19:47:00,
2013-02-20 13:52:00,37.0,14.4,29.44,ENE,70,2.7,5.4,39,0.00,,---,0.00,VWS V13.00,2013-02-20 19:52:00,
2013-02-20 13:57:00,37.0,14.4,29.44,West,272,0.0,4.9,39,0.00,,---,0.00,VWS V13.00,2013-02-20 19:57:00,
2013-02-20 14:02:00,37.0,14.4,29.44,ENE,73,0.0,4.0,39,0.00,,---,0.00,VWS V13.00,2013-02-20 20:02:00,
2013-02-20 14:07:00,37.0,14.4,29.44,NE,41,2.7,4.0,39,0.00,,---,0.00,VWS V13.00,2013-02-20 20:07:00,
2013-02-20 14:12:00,37.0,14.4,29.44,East,82,2.2,2.7,39,0.00,,---,0.00,VWS V13.00,2013-02-20 20:12:00,
2013-02-20 14:19:00,37.2,14.6,29.44,ENE,71,0.0,0.0,39,0.00,,---,0.00,VWS V13.00,2013-02-20 20:19:00,
2013-02-20 14:25:00,37.6,14.9,29.44,NW,308,0.0,3.1,39,0.00,,---,0.00,VWS V13.00,2013-02-20 20:25:00,
2013-02-20 14:31:00,37.9,15.2,29.44,NE,55,0.0,3.6,39,0.00,,---,0.00,VWS V13.00,2013-02-20 20:31:00,
2013-02-20 14:37:00,38.1,15.4,29.44,East,86,0.0,2.7,39,0.00,,---,0.00,VWS V13.00,2013-02-20 20:37:00,
2013-02-20 14:42:00,38.1,15.4,29.44,West,281,0.0,0.0,39,0.00,,---,0.00,VWS V13.00,2013-02-20 20:42:00,
2013-02-20 14:47:00,38.3,14.9,29.44,NE,38,0.0,0.0,38,0.00,,---,0.00,VWS V13.00,2013-02-20 20:47:00,
2013-02-20 14:55:00,38.5,15.1,29.41,West,275,0.0,0.0,38,0.00,,---,0.00,VWS V13.00,2013-02-20 20:55:00,
2013-02-20 15:01:00,38.5,15.1,29.41,West,275,0.0,0.0,38,0.00,,---,0.00,VWS V13.00,2013-02-20 21:01:00,
2013-02-20 15:07:00,38.5,15.1,29.41,ENE,64,0.0,0.0,38,0.00,,---,0.00,VWS V13.00,2013-02-20 21:07:00,
2013-02-20 15:12:00,38.3,14.9,29.44,ENE,61,0.0,0.0,38,0.00,,---,0.00,VWS V13.00,2013-02-20 21:12:00,
2013-02-20 15:19:00,38.3,15.5,29.44,ENE,60,0.0,0.0,39,0.00,,---,0.00,VWS V13.00,2013-02-20 21:19:00,
2013-02-20 15:25:00,38.7,15.3,29.41,North,357,0.0,0.0,38,0.00,,---,0.00,VWS V13.00,2013-02-20 21:25:00,
2013-02-20 15:31:00,38.8,16.0,29.41,ESE,103,0.0,2.7,39,0.00,,---,0.00,VWS V13.00,2013-02-20 21:31:00,
2013-02-20 15:37:00,38.8,15.4,29.41,ESE,107,0.0,3.1,38,0.00,,---,0.00,VWS V13.00,2013-02-20 21:37:00,
2013-02-20 15:42:00,38.7,15.3,29.41,ENE,65,0.0,0.0,38,0.00,,---,0.00,VWS V13.00,2013-02-20 21:42:00,
2013-02-20 15:47:00,38.5,15.1,29.41,NNE,25,4.9,4.9,38,0.00,,---,0.00,VWS V13.00,2013-02-20 21:47:00,
2013-02-20 15:55:00,37.9,14.6,29.38,NNE,30,0.0,5.8,38,0.00,,---,0.00,VWS V13.00,2013-02-20 21:55:00,
2013-02-20 16:01:00,37.6,14.3,29.38,NE,42,2.2,4.0,38,0.00,,---,0.00,VWS V13.00,2013-02-20 22:01:00,
2013-02-20 16:07:00,37.4,14.1,29.38,NNE,13,3.1,5.4,38,0.00,,---,0.00,VWS V13.00,2013-02-20 22:07:00,
2013-02-20 16:12:00,37.4,14.1,29.38,ENE,66,3.6,4.0,38,0.00,,---,0.00,VWS V13.00,2013-02-20 22:12:00,
2013-02-20 16:17:00,37.0,13.8,29.38,NNE,28,0.0,5.4,38,0.00,,---,0.00,VWS V13.00,2013-02-20 22:17:00,
2013-02-20 16:25:00,37.0,14.4,29.38,ESE,115,2.2,4.9,39,0.00,,---,0.00,VWS V13.00,2013-02-20 22:25:00,
2013-02-20 16:31:00,36.9,14.2,29.38,ENE,69,2.7,4.0,39,0.00,,---,0.00,VWS V13.00,2013-02-20 22:31:00,
2013-02-20 16:37:00,36.9,14.2,29.38,NE,42,4.0,4.0,39,0.00,,---,0.00,VWS V13.00,2013-02-20 22:37:00,
2013-02-20 16:42:00,36.9,14.8,29.38,NE,49,0.0,4.0,40,0.00,,---,0.00,VWS V13.00,2013-02-20 22:42:00,
2013-02-20 16:49:00,36.9,14.8,29.38,North,353,0.0,0.0,40,0.00,,---,0.00,VWS V13.00,2013-02-20 22:49:00,
2013-02-20 16:55:00,36.9,14.8,29.38,ENE,66,0.0,3.1,40,0.00,,---,0.00,VWS V13.00,2013-02-20 22:55:00,
2013-02-20 17:01:00,36.9,14.8,29.38,East,89,0.0,4.0,40,0.00,,---,0.00,VWS V13.00,2013-02-20 23:01:00,
2013-02-20 17:07:00,36.9,14.8,29.38,NNE,24,0.0,3.6,40,0.00,,---,0.00,VWS V13.00,2013-02-20 23:07:00,
2013-02-20 17:13:00,36.9,14.2,29.38,NNE,20,3.1,3.1,39,0.00,,---,0.00,VWS V13.00,2013-02-20 23:13:00,
2013-02-20 17:19:00,36.7,14.1,29.38,North,0,0.0,0.0,39,0.00,,---,0.00,VWS V13.00,2013-02-20 23:19:00,
2013-02-20 17:25:00,36.7,14.6,29.38,ENE,64,2.7,4.0,40,0.00,,---,0.00,VWS V13.00,2013-02-20 23:25:00,
2013-02-20 17:31:00,36.7,14.1,29.38,ENE,62,6.3,6.3,39,0.00,,---,0.00,VWS V13.00,2013-02-20 23:31:00,
2013-02-20 17:37:00,36.5,13.9,29.38,North,9,2.2,3.6,39,0.00,,---,0.00,VWS V13.00,2013-02-20 23:37:00,
2013-02-20 17:42:00,36.3,13.8,29.35,NE,49,0.0,5.8,39,0.00,,---,0.00,VWS V13.00,2013-02-20 23:42:00,
2013-02-20 17:47:00,36.3,13.8,29.35,ENE,57,0.0,3.6,39,0.00,,---,0.00,VWS V13.00,2013-02-20 23:47:00,
2013-02-20 17:52:00,36.3,13.8,29.35,NNE,24,0.0,0.0,39,0.00,,---,0.00,VWS V13.00,2013-02-20 23:52:00,
2013-02-20 17:57:00,36.1,14.2,29.38,NNE,27,0.0,0.0,40,0.00,,---,0.00,VWS V13.00,2013-02-20 23:57:00,
2013-02-20 18:02:00,36.1,14.2,29.38,ENE,59,0.0,0.0,40,0.00,,---,0.00,VWS V13.00,2013-02-21 00:02:00,
2013-02-20 18:08:00,36.1,14.2,29.38,NE,47,0.0,0.0,40,0.00,,---,0.00,VWS V13.00,2013-02-21 00:08:00,
2013-02-20 18:14:00,36.1,14.2,29.35,ENE,57,0.0,0.0,40,0.00,,---,0.00,VWS V13.00,2013-02-21 00:14:00,
2013-02-20 18:20:00,35.8,13.8,29.35,NE,43,0.0,4.9,40,0.00,,---,0.00,VWS V13.00,2013-02-21 00:20:00,
2013-02-20 18:26:00,35.8,13.8,29.38,ENE,61,0.0,4.0,40,0.00,,---,0.00,VWS V13.00,2013-02-21 00:26:00,
2013-02-20 18:32:00,35.8,13.8,29.38,NNW,335,3.1,3.1,40,0.00,,---,0.00,VWS V13.00,2013-02-21 00:32:00,
2013-02-20 18:37:00,35.8,13.8,29.38,NE,50,0.0,5.4,40,0.00,,---,0.00,VWS V13.00,2013-02-21 00:37:00,
2013-02-20 18:42:00,35.8,13.8,29.38,South,178,0.0,0.0,40,0.00,,---,0.00,VWS V13.00,2013-02-21 00:42:00,
2013-02-20 18:50:00,36.0,14.0,29.38,East,87,0.0,3.6,40,0.00,,---,0.00,VWS V13.00,2013-02-21 00:50:00,
2013-02-20 18:56:00,35.8,13.8,29.38,NE,44,0.0,3.6,40,0.00,,---,0.00,VWS V13.00,2013-02-21 00:56:00,
2013-02-20 19:02:00,35.8,13.8,29.38,NNE,32,0.0,4.0,40,0.00,,---,0.00,VWS V13.00,2013-02-21 01:02:00,
2013-02-20 19:07:00,35.8,13.8,29.38,ENE,75,5.4,5.8,40,0.00,,---,0.00,VWS V13.00,2013-02-21 01:07:00,
2013-02-20 19:14:00,35.8,13.8,29.38,ENE,72,0.0,2.2,40,0.00,,---,0.00,VWS V13.00,2013-02-21 01:14:00,
2013-02-20 19:20:00,35.8,13.8,29.38,NNE,31,0.0,4.5,40,0.00,,---,0.00,VWS V13.00,2013-02-21 01:20:00,
2013-02-20 19:26:00,35.6,13.7,29.38,NE,48,0.0,3.1,40,0.00,,---,0.00,VWS V13.00,2013-02-21 01:26:00,
2013-02-20 19:32:00,35.6,13.7,29.38,WNW,301,0.0,4.0,40,0.00,,---,0.00,VWS V13.00,2013-02-21 01:32:00,
2013-02-20 19:37:00,35.6,13.7,29.38,NE,48,2.2,2.7,40,0.00,,---,0.00,VWS V13.00,2013-02-21 01:37:00,
2013-02-20 19:42:00,35.6,13.7,29.38,ESE,109,0.0,3.1,40,0.00,,---,0.00,VWS V13.00,2013-02-21 01:42:00,
2013-02-20 19:50:00,35.4,13.5,29.38,ENE,77,2.2,4.0,40,0.00,,---,0.00,VWS V13.00,2013-02-21 01:50:00,
2013-02-20 19:56:00,35.4,13.5,29.38,ENE,68,5.4,5.4,40,0.00,,---,0.00,VWS V13.00,2013-02-21 01:56:00,
2013-02-20 20:02:00,35.2,13.4,29.38,NE,54,3.1,4.9,40,0.00,,---,0.00,VWS V13.00,2013-02-21 02:02:00,
2013-02-20 20:07:00,35.1,13.2,29.38,NE,49,2.7,4.0,40,0.00,,---,0.00,VWS V13.00,2013-02-21 02:07:00,
2013-02-20 20:14:00,35.1,13.2,29.38,North,353,5.8,5.8,40,0.00,,---,0.00,VWS V13.00,2013-02-21 02:14:00,
2013-02-20 20:20:00,34.9,13.0,29.38,NNE,18,3.1,4.0,40,0.00,,---,0.00,VWS V13.00,2013-02-21 02:20:00,
2013-02-20 20:26:00,34.9,13.0,29.35,East,84,6.3,6.3,40,0.00,,---,0.00,VWS V13.00,2013-02-21 02:26:00,
2013-02-20 20:32:00,34.9,13.0,29.35,ESE,114,0.0,4.9,40,0.00,,---,0.00,VWS V13.00,2013-02-21 02:32:00,
2013-02-20 20:37:00,34.9,13.0,29.35,East,96,2.7,6.3,40,0.00,,---,0.00,VWS V13.00,2013-02-21 02:37:00,
2013-02-20 20:44:00,34.7,12.9,29.38,West,259,0.0,3.1,40,0.00,,---,0.00,VWS V13.00,2013-02-21 02:44:00,
2013-02-20 20:50:00,34.7,13.4,29.38,NE,52,0.0,4.9,41,0.00,,---,0.00,VWS V13.00,2013-02-21 02:50:00,
2013-02-20 20:56:00,34.7,13.4,29.38,North,353,0.0,3.1,41,0.00,,---,0.00,VWS V13.00,2013-02-21 02:56:00,
2013-02-20 21:02:00,34.7,12.9,29.38,East,84,0.0,5.4,40,0.00,,---,0.00,VWS V13.00,2013-02-21 03:02:00,
2013-02-20 21:08:00,34.7,13.4,29.38,NE,54,2.2,2.2,41,0.00,,---,0.00,VWS V13.00,2013-02-21 03:08:00,
2013-02-20 21:14:00,34.5,13.3,29.38,NNE,31,0.0,3.1,41,0.00,,---,0.00,VWS V13.00,2013-02-21 03:14:00,
2013-02-20 21:20:00,34.7,13.4,29.38,NE,56,2.2,2.7,41,0.00,,---,0.00,VWS V13.00,2013-02-21 03:20:00,
2013-02-20 21:26:00,34.5,13.3,29.41,ESE,105,0.0,3.1,41,0.00,,---,0.00,VWS V13.00,2013-02-21 03:26:00,
2013-02-20 21:32:00,34.5,13.3,29.41,East,82,0.0,2.7,41,0.00,,---,0.00,VWS V13.00,2013-02-21 03:32:00,
2013-02-20 21:37:00,34.5,13.3,29.41,NE,48,2.7,3.6,41,0.00,,---,0.00,VWS V13.00,2013-02-21 03:37:00,
2013-02-20 21:42:00,34.5,13.3,29.35,East,86,4.0,5.4,41,0.00,,---,0.00,VWS V13.00,2013-02-21 03:42:00,
2013-02-20 21:47:00,34.5,13.3,29.35,ENE,60,2.2,8.3,41,0.00,,---,0.00,VWS V13.00,2013-02-21 03:47:00,
2013-02-20 21:53:00,34.3,13.1,29.35,ENE,62,2.2,2.7,41,0.00,,---,0.00,VWS V13.00,2013-02-21 03:53:00,
2013-02-20 21:59:00,34.3,13.1,29.38,ESE,116,4.0,4.9,41,0.00,,---,0.00,VWS V13.00,2013-02-21 03:59:00,
2013-02-20 22:06:00,34.3,13.1,29.38,NNE,27,0.0,3.1,41,0.00,,---,0.00,VWS V13.00,2013-02-21 04:06:00,
2013-02-20 22:12:00,34.3,13.1,29.38,NNE,32,0.0,0.0,41,0.00,,---,0.00,VWS V13.00,2013-02-21 04:12:00,
2013-02-20 22:17:00,34.3,13.1,29.38,NNE,18,0.0,4.9,41,0.00,,---,0.00,VWS V13.00,2013-02-21 04:17:00,
2013-02-20 22:23:00,34.3,13.1,29.38,NNE,28,0.0,3.1,41,0.00,,---,0.00,VWS V13.00,2013-02-21 04:23:00,
2013-02-20 22:30:00,34.2,12.9,29.38,ENE,63,0.0,0.0,41,0.00,,---,0.00,VWS V13.00,2013-02-21 04:30:00,
2013-02-20 22:36:00,34.0,12.8,29.38,NE,47,0.0,0.0,41,0.00,,---,0.00,VWS V13.00,2013-02-21 04:36:00,
2013-02-20 22:42:00,34.0,12.8,29.38,ENE,62,0.0,0.0,41,0.00,,---,0.00,VWS V13.00,2013-02-21 04:42:00,
2013-02-20 22:48:00,34.0,12.8,29.38,NNE,32,0.0,3.1,41,0.00,,---,0.00,VWS V13.00,2013-02-21 04:48:00,
2013-02-20 22:53:00,33.8,12.6,29.38,ENE,60,0.0,0.0,41,0.00,,---,0.00,VWS V13.00,2013-02-21 04:53:00,
2013-02-20 22:58:00,33.8,12.6,29.38,NNE,23,0.0,2.2,41,0.00,,---,0.00,VWS V13.00,2013-02-21 04:58:00,
2013-02-20 23:00:00,33.8,13.1,29.38,NNE,23,0.0,0.0,42,0.00,,---,0.00,VWS V13.00,2013-02-21 05:00:00,
2013-02-20 23:03:00,33.8,13.1,29.38,NNE,30,0.0,2.2,42,0.00,,---,0.00,VWS V13.00,2013-02-21 05:03:00,
2013-02-20 23:08:00,33.8,13.1,29.38,ENE,61,0.0,4.9,42,0.00,,---,0.00,VWS V13.00,2013-02-21 05:08:00,
2013-02-20 23:09:00,33.8,13.1,29.38,ENE,57,2.2,2.2,42,0.00,,---,0.00,VWS V13.00,2013-02-21 05:09:00,
2013-02-20 23:15:00,34.0,13.3,29.35,ENE,63,0.0,0.0,42,0.00,,---,0.00,VWS V13.00,2013-02-21 05:15:00,
2013-02-20 23:21:00,34.0,13.3,29.35,NNE,30,0.0,0.0,42,0.00,,---,0.00,VWS V13.00,2013-02-21 05:21:00,
2013-02-20 23:27:00,34.0,13.3,29.38,NE,44,0.0,0.0,42,0.00,,---,0.00,VWS V13.00,2013-02-21 05:27:00,
2013-02-20 23:33:00,34.0,13.3,29.38,NE,38,0.0,3.6,42,0.00,,---,0.00,VWS V13.00,2013-02-21 05:33:00,
2013-02-20 23:39:00,34.0,13.3,29.38,ENE,77,0.0,3.1,42,0.00,,---,0.00,VWS V13.00,2013-02-21 05:39:00,
2013-02-20 23:45:00,34.0,13.3,29.35,ENE,76,0.0,3.1,42,0.00,,---,0.00,VWS V13.00,2013-02-21 05:45:00,
2013-02-20 23:51:00,34.0,13.3,29.35,NE,39,0.0,3.1,42,0.00,,---,0.00,VWS V13.00,2013-02-21 05:51:00,
2013-02-20 23:57:00,34.0,13.3,29.35,NE,46,0.0,0.0,42,0.00,,---,0.00,VWS V13.00,2013-02-21 05:57:00,